Temperature
4 5 5 5 5 6 6 6 7 7 7 7 7 8 8 8 8 8 8 8 8 8 8 8 8 8 8 8 8 8 7 7 7 7 7 7 7 7 7 7 7 7 7
4 4 5 5 5 5 6 6 6 6 7 7 7 7 7 8 8 8 8 8 8 8 8 8 7 7 7 7 7 7 7 7 7 7 7 6 6 6 6 6 6 6 6
3 4 4 4 4 5 5 5 6 6 6 6 7 7 7 7 7 7 7 7 7 7 7 7 7 7 7 7 7 7 7 7 7 6 6 6 6 6 6 6 6 6 6
2 3 3 3 4 4 4 5 5 5 5 6 6 6 6 7 7 7 7 7 7 7 7 7 6 6 6 7 7 7 6 6 6 6 6 6 5 5 5 5 5 5 5
2 2 2 3 3 3 4 4 4 5 5 5 5 6 6 6 6 6 6 6 6 6 6 6 6 6 6 6 6 6 6 6 6 5 5 5 5 5 5 5 5 5 4
1 1 2 2 2 3 3 3 4 4 4 5 5 5 5 6 6 6 6 6 6 6 6 5 5 6 6 5 5 5 5 5 5 5 5 5 5 5 4 4 4 4 4
0 1 1 1 2 2 2 3 3 3 4 4 4 5 5 5 5 5 5 5 5 5 5 5 5 5 5 5 5 5 5 4 4 4 4 4 4 4 4 4 4 4 4
-1 -0 0 1 1 1 2 2 2 3 3 3 4 4 4 4 4 4 4 4 4 5 5 5 5 4 4 4 4 4 4 4 4 4 4 4 4 4 4 4 3 3 3
-1 -1 -0 0 0 1 1 1 1 2 2 3 3 3 3 3 4 4 4 4 4 4 4 4 4 4 4 4 4 4 4 3 3 3 3 3 3 3 3 3 3 3 2
-2 -1 -1 -1 -0 0 0 1 1 1 2 2 2 2 2 3 3 3 3 3 3 3 3 3 3 3 3 3 3 3 3 3 3 3 3 3 3 2 2 2 2 2 2
-2 -2 -2 -1 -1 -1 -0 -0 0 1 1 1 1 1 2 2 2 2 2 2 2 2 2 2 3 3 3 3 3 3 2 2 2 2 2 2 2 2 2 2 2 1 1
-3 -3 -2 -2 -2 -1 -1 -1 -0 -0 0 0 0 1 1 1 1 1 2 2 2 2 2 2 2 2 2 2 2 2 2 2 2 1 1 1 1 1 1 1 1 1 1
-4 -3 -3 -3 -3 -2 -2 -1 -1 -1 -1 -1 -0 -0 -0 0 0 1 1 1 1 1 1 1 1 1 1 1 1 1 1 1 1 1 1 1 1 1 1 0 0 0 0
-5 -4 -4 -3 -3 -3 -2 -2 -2 -2 -1 -1 -1 -1 -1 -1 -0 -0 -0 0 0 0 0 0 0 0 0 0 0 -0 -0 0 0 0 0 0 -0 -0 -0 -0 -0 -0 -1
-5 -5 -5 -4 -4 -3 -3 -3 -2 -2 -2 -2 -2 -2 -2 -1 -1 -1 -1 -1 -0 -0 -0 -0 -0 -0 -0 -1 -1 -1 -1 -1 -1 -0 -1 -1 -1 -1 -1 -1 -1 -1 -1
-6 -6 -6 -5 -5 -4 -4 -3 -3 -3 -3 -2 -2 -2 -2 -2 -2 -1 -1 -1 -1 -1 -1 -1 -1 -1 -1 -1 -1 -1 -1 -1 -1 -1 -1 -1 -1 -1 -2 -2 -2 -2 -2
-7 -7 -6 -6 -5 -5 -5 -4 -4 -3 -3 -3 -3 -3 -2 -2 -2 -2 -2 -2 -2 -2 -1 -1 -1 -2 -2 -2 -2 -2 -2 -2 -2 -2 -2 -2 -2 -2 -2 -2 -3 -3 -3
-7 -7 -7 -6 -6 -6 -5 -5 -5 -4 -4 -4 -4 -3 -3 -3 -3 -3 -3 -2 -3 -2 -2 -2 -2 -2 -2 -2 -2 -2 -2 -2 -2 -2 -3 -3 -3 -3 -3 -3 -3 -3 -3
-7 -7 -7 -7 -7 -6 -6 -6 -5 -5 -5 -5 -4 -4 -4 -4 -3 -3 -3 -3 -3 -3 -3 -3 -3 -3 -3 -3 -3 -3 -3 -3 -3 -3 -3 -3 -4 -4 -4 -4 -4 -4 -4
-8 -8 -7 -7 -7 -7 -7 -6 -6 -6 -6 -6 -5 -5 -5 -4 -4 -4 -4 -4 -4 -4 -4 -4 -4 -4 -4 -3 -4 -4 -4 -4 -4 -4 -4 -4 -4 -4 -4 -5 -5 -5 -5
-8 -8 -8 -7 -7 -7 -7 -7 -7 -7 -6 -6 -6 -5 -5 -5 -5 -5 -5 -5 -4 -4 -4 -4 -4 -4 -4 -4 -4 -4 -4 -4 -4 -4 -4 -5 -5 -5 -5 -5 -5 -5 -6
-9 -8 -8 -8 -8 -8 -8 -7 -7 -7 -7 -7 -6 -6 -6 -6 -5 -5 -5 -5 -5 -5 -5 -5 -5 -5 -5 -5 -5 -5 -5 -5 -5 -5 -5 -5 -5 -5 -5 -6 -6 -6 -6
-9 -9 -9 -8 -8 -8 -8 -8 -8 -7 -7 -7 -7 -6 -6 -6 -6 -6 -5 -5 -5 -5 -5 -5 -5 -5 -5 -5 -5 -5 -5 -5 -5 -5 -5 -6 -6 -6 -6 -6 -6 -6 -6
-9 -9 -9 -9 -9 -9 -8 -8 -8 -8 -8 -7 -7 -7 -7 -7 -6 -6 -6 -6 -6 -6 -6 -6 -6 -6 -6 -6 -6 -6 -6 -6 -6 -6 -6 -6 -6 -6 -6 -7 -7 -7 -7
-10 -10 -10 -9 -9 -9 -9 -9 -8 -8 -8 -8 -7 -7 -7 -7 -7 -7 -6 -6 -6 -6 -6 -6 -6 -6 -6 -6 -6 -6 -6 -6 -6 -6 -6 -7 -7 -7 -7 -7 -7 -7 -7
-10 -10 -10 -10 -10 -9 -9 -9 -9 -9 -8 -8 -8 -8 -8 -7 -7 -7 -7 -7 -7 -6 -7 -7 -6 -6 -6 -6 -6 -6 -6 -6 -6 -7 -7 -7 -7 -7 -7 -7 -8 -8 -8
Wind_Speed
1 1 2 3 3 3 4 5 5 5 6 6 6 6 6 6 5 5 5 5 5 4 4 4 4 3 3 3 3 2 2 3 3 1 0 1 2 3 2 1 1 1 1
2 1 2 2 2 3 3 4 4 5 5 6 6 6 6 6 6 6 6 6 5 5 5 5 4 4 4 3 3 3 3 3 3 3 1 1 1 3 3 2 1 1 1
2 1 1 2 2 2 2 2 3 4 4 4 5 6 6 6 6 6 6 6 6 6 5 5 5 5 4 3 4 3 3 3 3 4 2 1 1 1 2 1 1 0 0
2 1 1 2 2 2 2 2 3 3 4 4 5 5 5 5 5 5 6 6 6 5 5 5 5 5 5 5 4 4 3 3 3 3 3 2 1 1 2 1 1 0 0
2 1 1 1 2 2 2 2 3 3 4 4 4 4 4 4 5 6 6 6 5 5 4 4 4 5 5 5 4 4 4 4 4 4 3 2 2 2 3 2 2 1 1
3 1 1 1 1 2 2 2 2 3 3 4 4 5 4 4 5 7 6 5 5 5 5 4 3 5 5 5 5 5 5 5 5 4 4 4 4 4 3 3 2 1 2
3 2 0 0 1 1 1 2 2 3 3 3 3 4 4 4 6 7 7 5 5 5 5 5 3 3 5 4 4 4 3 3 5 5 5 4 4 4 5 4 3 2 2
3 2 1 1 1 1 1 2 2 1 2 3 3 3 3 4 5 6 6 5 4 4 4 5 5 4 4 6 5 4 2 1 2 3 3 3 3 3 4 4 4 2 1
4 3 2 1 1 1 2 2 1 1 2 3 3 4 4 3 5 6 6 4 4 3 3 4 5 5 7 8 6 5 4 2 3 5 5 4 4 4 4 3 2 2 1
5 5 3 2 2 2 2 2 1 2 2 3 3 3 3 4 5 6 5 4 4 3 3 3 4 6 7 8 6 6 6 4 3 3 3 3 3 3 4 3 3 3 1
6 5 4 2 2 2 1 1 2 2 2 3 3 2 3 3 5 6 6 4 5 4 3 3 2 5 6 7 6 5 6 5 4 4 3 2 2 2 2 2 2 2 2
5 4 4 2 2 1 0 1 1 2 3 3 3 2 2 2 3 4 5 5 4 4 4 3 3 6 6 6 4 5 6 5 3 3 3 2 2 2 1 2 2 1 1
5 4 4 3 2 1 0 1 1 2 2 2 3 2 2 2 2 4 4 5 4 3 3 5 5 6 5 4 4 5 5 3 3 3 3 2 2 2 2 2 2 1 1
5 4 4 3 2 2 1 0 1 1 2 2 3 2 2 2 2 2 3 3 4 4 4 5 5 5 3 3 3 3 2 3 3 3 3 2 2 2 2 1 1 0 1
5 4 4 4 2 2 2 1 1 1 1 2 2 2 3 3 2 3 3 3 4 4 5 3 3 3 2 2 2 2 2 2 2 2 3 3 2 2 1 1 1 1 1
5 4 3 3 3 2 2 2 4 2 2 2 1 1 1 2 3 4 4 5 5 7 4 4 3 3 3 3 3 2 2 2 2 2 2 2 2 2 2 1 1 1 2
4 4 3 3 3 2 2 1 2 3 4 3 2 2 1 2 3 3 4 5 5 5 3 3 3 3 3 3 3 3 2 2 2 2 2 2 2 2 2 2 2 2 2
4 4 3 2 2 2 2 1 1 1 1 2 2 2 2 2 2 3 4 4 3 2 2 3 3 3 3 3 3 2 2 3 2 3 2 2 2 2 2 2 2 2 2
5 4 3 2 2 2 2 2 1 1 1 1 1 2 2 2 3 3 3 2 3 2 2 2 2 3 3 3 3 3 3 3 3 2 2 2 2 2 2 2 2 3 3
4 6 5 3 2 2 2 2 1 1 1 1 1 1 1 1 2 2 1 2 2 2 2 2 2 2 2 3 3 3 3 3 3 3 2 2 2 2 3 3 3 3 3
4 5 6 3 2 2 2 1 1 1 1 1 1 1 1 1 1 1 1 1 1 2 2 2 2 2 2 2 3 3 3 3 3 3 3 3 3 3 3 3 3 3 3
4 3 3 3 2 2 2 2 1 1 1 1 1 2 2 1 1 1 1 0 1 1 1 1 2 2 2 3 3 3 4 3 3 3 3 3 3 3 3 3 4 4 4
4 4 3 3 2 3 3 2 1 1 1 1 1 1 1 1 0 0 0 0 0 0 1 1 1 1 2 3 4 4 4 4 4 4 4 4 4 4 4 4 5 4 4
3 3 3 3 3 2 2 2 2 1 1 1 1 1 1 1 1 1 0 0 0 0 0 1 2 3 4 4 4 4 5 5 5 5 6 5 5 4 4 4 5 5 5
3 3 3 3 3 3 2 2 2 2 2 2 1 1 1 1 1 1 1 1 1 1 1 2 2 3 4 5 5 5 6 7 7 7 7 6 6 5 5 5 5 5 5
3 3 3 2 2 2 3 2 2 2 2 2 2 1 2 2 1 1 1 1 1 2 2 2 3 4 5 5 6 6 7 8 9 9 7 6 5 5 5 5 5 5 5
Wind_Direction
291 228 192 200 199 190 183 182 182 177 175 176 177 177 179 177 172 169 173 171 176 179 178 178 187 176 173 176 175 179 178 164 189 227 127 125 131 132 120 105 47 69 50
304 270 199 192 189 190 186 184 182 185 184 183 179 180 181 178 176 174 178 178 181 185 187 185 192 178 175 177 180 187 187 179 178 189 201 185 167 156 143 122 97 88 105
321 295 189 180 184 191 194 187 182 185 189 188 181 185 186 184 184 183 182 182 184 188 187 187 189 178 187 185 185 191 190 178 168 173 186 189 178 151 131 117 115 92 243
319 284 225 197 190 198 198 194 189 188 193 196 190 187 187 187 187 187 184 184 182 183 185 186 187 185 189 188 190 190 180 170 160 164 174 186 184 168 152 177 192 231 273
311 262 241 221 194 190 185 193 191 189 200 198 192 186 185 187 190 187 184 184 180 178 180 185 184 175 174 180 184 183 178 175 167 170 177 179 185 176 195 194 197 206 283
315 269 263 237 210 193 190 186 188 191 195 189 189 184 184 195 190 189 187 181 176 176 179 177 172 174 173 169 166 170 178 183 183 182 189 194 197 193 182 178 171 182 255
319 310 277 252 241 220 210 189 195 194 190 186 182 177 181 188 188 188 188 181 174 177 178 174 176 173 159 154 151 141 142 168 184 184 189 200 194 194 180 182 190 194 216
328 331 310 282 261 243 206 194 203 188 183 182 176 181 182 187 185 186 176 164 162 171 175 172 171 172 169 158 147 141 142 147 176 165 177 190 181 171 176 182 182 169 178
341 331 304 278 262 253 223 208 200 183 182 177 178 180 181 184 182 175 163 153 153 162 168 168 171 172 170 164 155 154 151 146 132 143 146 152 156 160 161 135 140 149 242
332 325 310 289 272 250 236 215 207 191 180 170 169 168 171 172 173 169 163 152 153 156 151 158 173 175 172 169 166 165 172 176 151 127 118 116 129 133 145 156 169 178 193
328 330 323 305 292 275 261 229 189 179 161 153 153 152 158 163 168 170 172 166 163 159 161 162 166 170 169 170 168 173 177 163 155 147 139 129 113 114 122 140 153 172 195
338 339 331 321 309 296 279 259 195 163 152 150 148 147 138 143 156 168 171 173 165 163 169 162 160 164 166 165 163 156 152 145 143 141 142 151 154 157 140 138 139 151 200
347 346 339 337 346 336 225 215 171 155 156 161 157 160 156 140 144 157 164 163 164 156 149 151 149 149 142 140 138 144 144 146 150 156 169 176 167 154 133 112 85 64 2
352 348 344 353 2 5 359 7 113 141 158 164 166 168 159 146 141 139 143 143 140 130 125 126 125 125 121 122 123 129 137 152 158 164 157 145 133 134 138 151 165 180 326
355 354 355 356 360 4 13 22 47 77 144 160 169 172 173 179 186 172 163 161 155 149 135 122 124 130 130 128 123 122 125 134 144 141 146 146 146 148 153 153 157 170 243
355 355 354 351 356 2 17 27 32 52 52 59 103 170 173 162 155 165 163 156 154 150 139 147 153 155 158 159 157 153 149 154 154 148 151 160 165 171 172 164 180 207 243
350 343 342 347 351 354 1 18 17 29 45 52 60 70 106 140 151 158 156 149 148 147 144 155 160 164 167 165 165 166 172 161 149 154 162 168 172 177 182 201 215 232 252
343 338 339 342 343 339 340 355 14 21 33 36 41 54 71 111 131 142 145 136 132 135 147 159 166 166 166 169 169 167 161 156 158 162 165 171 177 186 197 212 221 231 248
340 342 338 337 339 337 341 356 6 6 27 33 40 48 52 76 89 98 117 130 145 153 159 161 167 168 169 170 170 169 166 170 171 173 177 180 184 188 207 223 234 245 254
341 341 343 342 340 342 347 357 3 9 25 37 33 21 32 65 89 95 104 124 145 158 162 163 167 171 170 172 174 175 176 179 182 187 189 191 197 201 212 219 229 239 250
340 341 344 343 341 342 344 344 345 357 12 12 359 356 36 99 118 121 120 133 161 178 179 173 171 175 177 175 179 182 189 196 197 198 201 205 205 216 224 228 235 243 250
335 337 340 339 340 343 341 337 341 355 359 355 350 359 19 48 84 114 132 159 172 183 191 182 186 188 185 189 190 192 197 204 208 206 208 212 216 222 224 226 235 242 245
336 337 338 337 333 335 341 340 346 349 342 333 326 332 353 17 41 57 44 171 157 162 179 183 190 199 201 201 200 200 206 213 213 206 207 216 222 223 224 229 233 239 244
335 333 332 331 332 333 335 335 330 330 324 313 318 324 336 344 336 340 330 338 30 191 213 210 213 216 218 219 223 225 227 227 220 216 212 218 225 230 231 234 238 241 241
331 329 330 330 332 332 333 332 325 321 317 314 315 317 322 321 313 307 284 281 271 266 257 244 239 235 236 237 240 241 236 230 227 225 223 221 224 225 232 238 241 240 242
332 331 329 329 328 327 328 325 320 315 308 308 305 299 293 293 292 293 288 280 277 274 271 264 261 256 254 256 252 246 239 237 234 232 229 224 222 227 228 236 238 238 237
Height
1481 1484 1487 1489 1492 1495 1498 1501 1505 1508 1510 1513 1516 1519 1521 1524 1526 1529 1531 1534 1536 1538 1540 1542 1544 1546 1548 1549 1551 1552 1554 1555 1555 1557 1558 1559 1560 1561 1561 1562 1562 1562 1562
1478 1480 1483 1486 1489 1492 1494 1498 1501 1504 1507 1510 1512 1515 1518 1520 1523 1525 1528 1530 1532 1534 1536 1538 1540 1542 1544 1545 1547 1548 1549 1551 1552 1552 1554 1555 1556 1557 1558 1558 1558 1559 1559
1475 1477 1480 1482 1485 1488 1491 1493 1497 1500 1503 1506 1509 1511 1514 1516 1519 1521 1524 1526 1528 1530 1532 1534 1536 1538 1539 1541 1542 1544 1545 1546 1547 1548 1549 1551 1552 1553 1554 1554 1555 1555 1555
1473 1474 1477 1479 1481 1485 1487 1490 1493 1496 1499 1502 1505 1507 1510 1512 1515 1517 1520 1522 1524 1526 1528 1530 1532 1534 1535 1537 1538 1539 1541 1542 1543 1544 1545 1547 1548 1549 1550 1550 1551 1551 1552
1470 1471 1473 1476 1478 1481 1484 1487 1489 1492 1495 1498 1501 1503 1506 1508 1511 1513 1515 1517 1519 1521 1524 1526 1528 1530 1531 1533 1534 1535 1536 1537 1539 1540 1541 1542 1543 1544 1546 1546 1547 1547 1548
1467 1468 1470 1473 1475 1477 1480 1482 1485 1488 1491 1494 1496 1498 1501 1504 1506 1509 1511 1513 1515 1517 1519 1521 1523 1525 1527 1528 1530 1531 1533 1533 1534 1535 1536 1538 1539 1541 1542 1542 1543 1543 1543
1464 1466 1468 1469 1471 1473 1475 1478 1480 1483 1486 1489 1491 1494 1496 1499 1502 1504 1506 1508 1510 1512 1514 1517 1518 1520 1522 1524 1525 1526 1528 1529 1531 1532 1532 1533 1535 1536 1538 1538 1539 1539 1539
1463 1464 1465 1466 1468 1470 1472 1474 1476 1479 1482 1484 1487 1489 1491 1494 1497 1499 1502 1504 1505 1508 1510 1512 1514 1516 1517 1519 1521 1522 1523 1524 1526 1527 1529 1530 1532 1533 1534 1535 1535 1535 1536
1460 1461 1462 1463 1465 1466 1468 1470 1473 1475 1477 1480 1482 1485 1487 1489 1492 1494 1497 1498 1500 1503 1505 1507 1509 1511 1513 1515 1516 1517 1519 1520 1522 1523 1524 1526 1527 1528 1529 1530 1531 1532 1531
1458 1459 1459 1461 1462 1464 1465 1467 1469 1471 1473 1476 1478 1481 1483 1485 1488 1490 1492 1494 1496 1498 1500 1502 1504 1507 1508 1510 1512 1513 1514 1516 1518 1519 1520 1521 1523 1524 1525 1526 1527 1528 1527
1457 1457 1458 1459 1460 1461 1463 1464 1466 1468 1470 1472 1474 1477 1479 1481 1483 1486 1488 1489 1491 1493 1495 1497 1500 1502 1504 1506 1507 1509 1510 1512 1513 1515 1516 1517 1518 1519 1521 1522 1523 1524 1524
1455 1455 1456 1456 1457 1459 1460 1461 1463 1465 1466 1468 1470 1473 1475 1477 1479 1481 1484 1486 1487 1489 1491 1493 1495 1498 1500 1502 1503 1505 1507 1508 1510 1511 1512 1513 1514 1515 1517 1518 1519 1519 1520
1453 1453 1454 1454 1455 1456 1457 1459 1460 1462 1463 1465 1467 1469 1471 1473 1475 1478 1480 1481 1483 1485 1487 1489 1491 1493 1495 1497 1499 1501 1502 1504 1505 1507 1508 1509 1510 1512 1513 1514 1514 1515 1515
1452 1452 1452 1452 1453 1454 1455 1456 1457 1459 1460 1462 1464 1465 1467 1469 1471 1473 1475 1477 1479 1481 1483 1485 1487 1489 1491 1493 1495 1497 1499 1500 1502 1503 1504 1505 1507 1508 1508 1509 1510 1510 1511
1451 1450 1450 1450 1451 1452 1453 1454 1456 1457 1458 1460 1461 1463 1464 1465 1468 1470 1471 1473 1475 1477 1479 1481 1483 1485 1487 1488 1491 1493 1495 1496 1498 1499 1500 1501 1502 1504 1504 1505 1506 1506 1506
1450 1449 1449 1449 1449 1450 1451 1452 1454 1455 1456 1458 1459 1460 1462 1463 1465 1467 1469 1470 1472 1475 1477 1477 1479 1481 1483 1485 1487 1489 1491 1492 1494 1495 1496 1497 1498 1499 1500 1501 1501 1501 1501
1449 1449 1448 1448 1448 1449 1450 1450 1451 1453 1454 1455 1457 1458 1459 1460 1462 1464 1465 1467 1469 1471 1473 1474 1475 1477 1479 1481 1483 1485 1487 1488 1490 1491 1492 1493 1494 1495 1496 1496 1497 1497 1497
1449 1448 1448 1448 1448 1448 1449 1449 1449 1450 1451 1452 1454 1455 1456 1458 1459 1461 1463 1464 1466 1468 1469 1470 1472 1474 1476 1478 1480 1481 1483 1484 1486 1487 1488 1489 1490 1491 1491 1492 1492 1492 1492
1448 1447 1447 1447 1447 1447 1447 1448 1448 1449 1450 1450 1452 1453 1454 1456 1457 1458 1460 1461 1462 1464 1466 1467 1469 1471 1473 1475 1476 1478 1479 1480 1481 1482 1483 1484 1485 1486 1487 1487 1488 1488 1488
1448 1447 1447 1446 1446 1446 1447 1447 1447 1448 1449 1449 1450 1451 1452 1454 1454 1456 1457 1459 1460 1462 1463 1465 1466 1468 1470 1471 1473 1474 1475 1476 1477 1478 1479 1480 1481 1482 1482 1483 1483 1483 1483
1447 1446 1446 1446 1445 1445 1446 1446 1447 1447 1448 1448 1449 1450 1451 1452 1452 1453 1455 1456 1457 1459 1461 1462 1463 1465 1466 1467 1469 1470 1471 1472 1473 1474 1475 1475 1476 1477 1478 1478 1479 1479 1479
1446 1445 1445 1445 1445 1445 1445 1445 1446 1446 1447 1447 1448 1449 1450 1450 1451 1451 1452 1453 1455 1456 1458 1459 1460 1461 1462 1463 1465 1466 1467 1467 1468 1469 1470 1471 1472 1472 1473 1473 1473 1474 1474
1446 1445 1444 1444 1444 1444 1444 1444 1445 1445 1445 1446 1446 1447 1447 1448 1449 1449 1450 1451 1452 1453 1454 1456 1457 1458 1459 1460 1461 1461 1462 1463 1464 1465 1466 1466 1467 1468 1468 1468 1468 1468 1468
1445 1444 1443 1443 1443 1443 1443 1443 1443 1444 1444 1444 1445 1445 1445 1446 1446 1447 1447 1448 1449 1450 1451 1452 1453 1454 1455 1455 1456 1457 1458 1458 1459 1460 1461 1462 1462 1462 1463 1463 1463 1463 1464
1445 1444 1443 1443 1442 1442 1442 1442 1442 1442 1442 1442 1443 1443 1443 1443 1444 1444 1445 1445 1446 1447 1447 1448 1449 1450 1451 1451 1452 1452 1453 1454 1454 1455 1456 1456 1457 1457 1458 1458 1458 1458 1459
1444 1443 1442 1442 1441 1441 1440 1440 1440 1440 1440 1440 1440 1440 1441 1441 1441 1441 1442 1442 1443 1443 1444 1444 1445 1446 1446 1447 1447 1448 1448 1449 1449 1450 1451 1451 1451 1452 1452 1453 1453 1453 1454